Location: Catstown
(52.4386°N, 7.2633°W)
Time: 13:05:45
(UTC+00:00)

NOSS 3-2 (A) - Pass Details

Date: 18 September 2020
Orbit: 795 x 1413 km, 63.4° (Epoch: 02 October)

Event Time Altitude Azimuth Distance (km) Brightness Sun altitude
Rises 19:57:18 0° 313° (NW) 3,873 8.0 -12.9°
Reaches altitude 10° 19:59:49 10° 313° (NW) 2,998 7.2 -13.3°
Maximum altitude 20:07:07 87° 225° (SW) 1,251 4.0 -14.3°
Enters shadow 20:13:56 17° 138° (SE) 2,890 5.4 -15.3°
